sat.trackr.live / text

‹ back to catalog

KUIPER-00080

NORAD 64827 · 2025-151M

PAYLOAD ACTIVE UNKNOWN

§ Identity

Operator
Country
US
Launch date
2025-07-16
Launch site
AFETR
Launch vehicle
Mass (kg)
RCS (m²)

External: N2YO · Heavens-Above · Gunter

§ Orbital elements

Epoch: 2026-09-21T10:15:58.622976Z

Period
97.30 min
Inclination
51.9003°
Eccentricity
0.0000750
Mean motion
14.79933943 rev/d
Perigee alt
629.0 km
Apogee alt
630.1 km
Semi-major
7,007.7 km
B*
2.0352e-4
RAAN
155.0076°
Arg perigee
86.4280°
Mean anomaly
273.6768°
Rev number
6,429

§ Raw data

KUIPER-000801 64827U 25151M   26264.42776184  .00001331  00000+0  20352-3 0  99922 64827  51.9003 155.0076 0000750  86.4280 273.6768 14.79933943 64293

JSON: /api/v1/satellites/64827 · /tle

For live sub-satellite position, see the globe view (requires WebGL).

§ Visibility from observer

Set your observer location to see the next 7 days of passes ≥ 10°. The values pass through the URL so the page stays shareable.

No JS? Fill the form by hand. The geolocation button needs JavaScript.